Welkom op de weersite van Veghel e.o.

Het is weer maart en dat betekend weer Lente.

Echter na de warme februari.

Nu weer onstuimig en regenachtig.

Het gezegde "maart roert zijn staart" is weer actueel.




Webcam Veghel  Webcam Veghel


Onweer radar Meer informatie blitzortung!


Regen radar Meer informatie rain snow radar


U vindt ons ook hier:

Het Weer Aktueel

European Weather Network

Weather Underground

Benelux Weer Netwerk

AWEKAS


Het weer levert geen direct gevaar op.    Er zijn geen waarschuwingen afgegeven.

Weather Underground Historische gegevens

Dagelijkse Samenvatting maart 23, 2019 Eenheden:  Metrisch    Engels   Beide
« Vorige Dag
Volgende Dag »
Dagelijkse Wekelijkse Maandelijkse Jaarlijkse Aangepaste
  Huidig: Hoog: Laag: Gemiddeld:
Temperatuur: -11.3 °C -17.8 °C -14.1 °C -13 °C
Dauwpunt: -13.1 °C -17.8 °C -14.5 °C -13.9 °C
Vochtigheid: 81 % Humidity % 81 % 88 %
Wind snelheid: 7.7 km/h 0 km/h 0 km/h 7.9 km/h
Windvlaag: 12.9 km/h 0 km/h - -
Wind:WNW - - WSW
Luchtdruk: 34889.3 hPa 0 hPa 34784.4 hPa -
Neerslag: 0 mm      
Historical Graphs
 
 
Tabel voor maart 23, 2019
Tijd Temperatuur Dauwpunt Luchtdruk Wind Wind snelheid Windvlaag Vochtigheid Regenval per uur
-17.8 °C -17.8 °C 0 hPa Calm     Humidity % 0 mm
00:15 -14.1 °C -14.5 °C 34797.9 hPa WNW 18.2 km/h 20.8 km/h 95 % 0 mm
00:20 -14.1 °C -14.5 °C 34797.9 hPa WNW 15.6 km/h 23.3 km/h 95 % 0 mm
00:25 -14.1 °C -14.4 °C 34797.9 hPa NW 15.6 km/h 20.8 km/h 95 % 0 mm
00:35 -14 °C -14.4 °C 34797.9 hPa NW 18.2 km/h 23.3 km/h 95 % 0 mm
00:40 -14 °C -14.4 °C 34797.9 hPa WNW 20.8 km/h 23.3 km/h 95 % 0 mm
00:45 -13.9 °C -14.3 °C 34797.9 hPa WNW 20.8 km/h 20.8 km/h 95 % 0 mm
00:50 -13.9 °C -14.3 °C 34797.9 hPa West 15.6 km/h 20.8 km/h 95 % 0 mm
00:55 -13.9 °C -14.3 °C 34797.9 hPa NW 10.3 km/h 10.3 km/h 95 % 0 mm
01:00 -13.8 °C -14.3 °C 34797.9 hPa WNW 10.3 km/h 10.3 km/h 95 % 0 mm
01:05 -13.8 °C -14.2 °C 34797.9 hPa WNW 12.9 km/h 12.9 km/h 95 % 0 mm
01:10 -13.8 °C -14.2 °C 34797.9 hPa NW 12.9 km/h 12.9 km/h 95 % 0 mm
01:15 -13.8 °C -14.2 °C 34797.9 hPa NW 10.3 km/h 12.9 km/h 95 % 0 mm
01:20 -13.8 °C -14.3 °C 34797.9 hPa WNW 10.3 km/h 15.6 km/h 94 % 0 mm
01:25 -13.7 °C -14.2 °C 34797.9 hPa WNW 10.3 km/h 15.6 km/h 94 % 0 mm
01:30 -13.7 °C -14.2 °C 34797.9 hPa WNW 10.3 km/h 10.3 km/h 94 % 0 mm
01:35 -13.7 °C -14.2 °C 34797.9 hPa WNW 10.3 km/h 10.3 km/h 94 % 0 mm
01:40 -13.7 °C -14.2 °C 34797.9 hPa NW 10.3 km/h 10.3 km/h 93 % 0 mm
01:45 -13.6 °C -14.2 °C 34797.9 hPa WNW 7.7 km/h 10.3 km/h 93 % 0 mm
01:50 -13.6 °C -14.2 °C 34797.9 hPa NW 5.1 km/h 7.7 km/h 93 % 0 mm
01:55 -13.6 °C -14.2 °C 34797.9 hPa WNW 7.7 km/h 7.7 km/h 93 % 0 mm
02:00 -13.5 °C -14.1 °C 34797.9 hPa WNW 7.7 km/h 7.7 km/h 93 % 0 mm
02:05 -13.5 °C -14.2 °C 34797.9 hPa WNW 5.1 km/h 7.7 km/h 92 % 0 mm
02:10 -13.5 °C -14.2 °C 34797.9 hPa WNW 5.1 km/h 10.3 km/h 92 % 0 mm
02:15 -13.5 °C -14.2 °C 34797.9 hPa WNW 5.1 km/h 10.3 km/h 92 % 0 mm
02:20 -13.4 °C -14.1 °C 34797.9 hPa West 7.7 km/h 10.3 km/h 92 % 0 mm
02:25 -13.4 °C -14.2 °C 34797.9 hPa WNW 10.3 km/h 10.3 km/h 91 % 0 mm
02:30 -13.4 °C -14.2 °C 34797.9 hPa WNW 7.7 km/h 10.3 km/h 91 % 0 mm
02:35 -13.4 °C -14.2 °C 34797.9 hPa WNW 7.7 km/h 10.3 km/h 91 % 0 mm
02:40 -13.4 °C -14.2 °C 34797.9 hPa WNW 7.7 km/h 7.7 km/h 90 % 0 mm
02:45 -13.4 °C -14.2 °C 34797.9 hPa West 5.1 km/h 7.7 km/h 90 % 0 mm
02:55 -13.4 °C -14.3 °C 34784.4 hPa WSW 5.1 km/h 5.1 km/h 90 % 0 mm
03:00 -13.4 °C -14.4 °C 34784.4 hPa WSW 2.6 km/h 2.6 km/h 89 % 0 mm
03:05 -13.4 °C -14.4 °C 34797.9 hPa WSW 2.6 km/h 2.6 km/h 89 % 0 mm
03:10 -13.4 °C -14.3 °C 34784.4 hPa Calm     90 % 0 mm
03:15 -13.4 °C -14.3 °C 34797.9 hPa Calm     90 % 0 mm
03:20 -13.4 °C -14.3 °C 34797.9 hPa Calm     90 % 0 mm
03:25 -13.4 °C -14.3 °C 34797.9 hPa Calm   7.7 km/h 90 % 0 mm
03:30 -13.4 °C -14.3 °C 34797.9 hPa WSW 2.6 km/h 2.6 km/h 90 % 0 mm
03:35 -13.4 °C -14.3 °C 34797.9 hPa SW 2.6 km/h 5.1 km/h 90 % 0 mm
03:40 -13.4 °C -14.3 °C 34797.9 hPa SW 2.6 km/h 7.7 km/h 90 % 0 mm
03:45 -13.4 °C -14.3 °C 34797.9 hPa SW 2.6 km/h 7.7 km/h 90 % 0 mm
03:50 -13.4 °C -14.3 °C 34797.9 hPa SW 2.6 km/h 7.7 km/h 90 % 0 mm
03:55 -13.4 °C -14.3 °C 34797.9 hPa SW 2.6 km/h 7.7 km/h 90 % 0 mm
04:00 -13.4 °C -14.3 °C 34797.9 hPa SW 7.7 km/h 7.7 km/h 90 % 0 mm
04:20 -13.4 °C -14.3 °C 34797.9 hPa SSW 5.1 km/h 5.1 km/h 90 % 0 mm
04:25 -13.4 °C -14.3 °C 34797.9 hPa SSW 5.1 km/h 5.1 km/h 90 % 0 mm
04:30 -13.4 °C -14.3 °C 34797.9 hPa SSW 2.6 km/h 7.7 km/h 90 % 0 mm
04:35 -13.4 °C -14.3 °C 34797.9 hPa SSW 5.1 km/h 7.7 km/h 90 % 0 mm
04:40 -13.4 °C -14.3 °C 34797.9 hPa SSW 7.7 km/h 7.7 km/h 90 % 0 mm
04:45 -13.4 °C -14.3 °C 34797.9 hPa South 7.7 km/h 7.7 km/h 90 % 0 mm
04:50 -13.4 °C -14.3 °C 34797.9 hPa SSW 7.7 km/h 7.7 km/h 90 % 0 mm
04:55 -13.4 °C -14.3 °C 34797.9 hPa SSW 7.7 km/h 7.7 km/h 90 % 0 mm
05:00 -13.4 °C -14.3 °C 34797.9 hPa SSW 7.7 km/h 7.7 km/h 90 % 0 mm
05:05 -13.4 °C -14.3 °C 34797.9 hPa SW 7.7 km/h 7.7 km/h 90 % 0 mm
05:10 -13.4 °C -14.3 °C 34797.9 hPa SW 7.7 km/h 7.7 km/h 90 % 0 mm
05:15 -13.4 °C -14.2 °C 34797.9 hPa SW 5.1 km/h 7.7 km/h 90 % 0 mm
05:20 -13.4 °C -14.2 °C 34797.9 hPa SW 7.7 km/h 7.7 km/h 90 % 0 mm
05:25 -13.4 °C -14.2 °C 34808.1 hPa SW 7.7 km/h 7.7 km/h 90 % 0 mm
05:30 -13.4 °C -14.2 °C 34808.1 hPa SSW 7.7 km/h 12.9 km/h 90 % 0 mm
05:35 -13.4 °C -14.2 °C 34808.1 hPa SW 7.7 km/h 12.9 km/h 90 % 0 mm
05:40 -13.3 °C -14.3 °C 34808.1 hPa SW 7.7 km/h 7.7 km/h 89 % 0 mm
05:45 -13.3 °C -14.3 °C 34808.1 hPa SSW 7.7 km/h 7.7 km/h 89 % 0 mm
05:50 -13.3 °C -14.3 °C 34808.1 hPa SSW 7.7 km/h 10.3 km/h 89 % 0 mm
05:55 -13.3 °C -14.2 °C 34818.2 hPa SW 7.7 km/h 12.9 km/h 90 % 0 mm
06:00 -13.4 °C -14.3 °C 34818.2 hPa SW 7.7 km/h 7.7 km/h 89 % 0 mm
06:05 -13.3 °C -14.3 °C 34818.2 hPa SW 7.7 km/h 7.7 km/h 89 % 0 mm
06:10 -13.3 °C -14.3 °C 34818.2 hPa SW 7.7 km/h 10.3 km/h 89 % 0 mm
06:15 -13.3 °C -14.3 °C 34831.8 hPa SW 7.7 km/h 10.3 km/h 89 % 0 mm
06:20 -13.3 °C -14.3 °C 34831.8 hPa SW 7.7 km/h 7.7 km/h 89 % 0 mm
06:25 -13.4 °C -14.2 °C 34831.8 hPa SW 10.3 km/h 10.3 km/h 90 % 0 mm
06:30 -13.3 °C -14.2 °C 34831.8 hPa SW 7.7 km/h 7.7 km/h 90 % 0 mm
06:35 -13.3 °C -14.3 °C 34831.8 hPa SW 7.7 km/h 7.7 km/h 89 % 0 mm
06:40 -13.3 °C -14.3 °C 34831.8 hPa WSW 10.3 km/h 12.9 km/h 89 % 0 mm
06:45 -13.3 °C -14.2 °C 34831.8 hPa WSW 12.9 km/h 12.9 km/h 89 % 0 mm
06:50 -13.2 °C -14.2 °C 34831.8 hPa SW 10.3 km/h 10.3 km/h 89 % 0 mm
06:55 -13.2 °C -14.2 °C 34831.8 hPa WSW 10.3 km/h 10.3 km/h 89 % 0 mm
07:00 -13.2 °C -14.2 °C 34831.8 hPa WSW 5.1 km/h 10.3 km/h 89 % 0 mm
07:15 -13.2 °C -14.2 °C 34831.8 hPa WSW 7.7 km/h 7.7 km/h 89 % 0 mm
07:20 -13.2 °C -14.2 °C 34831.8 hPa SW 7.7 km/h 7.7 km/h 89 % 0 mm
07:25 -13.2 °C -14.2 °C 34831.8 hPa SW 5.1 km/h 5.1 km/h 89 % 0 mm
07:30 -13.2 °C -14.2 °C 34831.8 hPa SSW 5.1 km/h 7.7 km/h 89 % 0 mm
07:35 -13.2 °C -14.2 °C 34831.8 hPa SSW 5.1 km/h 5.1 km/h 89 % 0 mm
07:40 -13.2 °C -14.1 °C 34831.8 hPa SSW 5.1 km/h 5.1 km/h 90 % 0 mm
07:45 -13.2 °C -14.1 °C 34841.9 hPa Calm     90 % 0 mm
07:50 -13.2 °C -14.1 °C 34831.8 hPa Calm     90 % 0 mm
07:55 -13.2 °C -14.1 °C 34841.9 hPa Calm     90 % 0 mm
08:00 -13.2 °C -14.1 °C 34841.9 hPa SW 2.6 km/h 10.3 km/h 89 % 0 mm
08:05 -13.2 °C -14 °C 34841.9 hPa SSW 5.1 km/h 10.3 km/h 90 % 0 mm
08:10 -13.1 °C -14 °C 34841.9 hPa SSW 7.7 km/h 7.7 km/h 90 % 0 mm
08:15 -13.1 °C -14.1 °C 34831.8 hPa SSW 7.7 km/h 10.3 km/h 89 % 0 mm
08:20 -13.1 °C -13.9 °C 34841.9 hPa SSW 7.7 km/h 10.3 km/h 90 % 0 mm
08:25 -13.1 °C -14 °C 34841.9 hPa SSW 7.7 km/h 10.3 km/h 89 % 0 mm
08:30 -13.1 °C -14 °C 34841.9 hPa SW 7.7 km/h 10.3 km/h 89 % 0 mm
08:35 -13 °C -14 °C 34841.9 hPa SW 10.3 km/h 10.3 km/h 89 % 0 mm
08:40 -13 °C -13.9 °C 34841.9 hPa WSW 7.7 km/h 10.3 km/h 89 % 0 mm
08:45 -12.9 °C -14 °C 34841.9 hPa SW 10.3 km/h 10.3 km/h 88 % 0 mm
08:50 -12.9 °C -14 °C 34852.1 hPa WSW 10.3 km/h 10.3 km/h 88 % 0 mm
08:55 -12.9 °C -14 °C 34852.1 hPa SW 10.3 km/h 12.9 km/h 88 % 0 mm
09:00 -12.9 °C -13.9 °C 34852.1 hPa SW 12.9 km/h 12.9 km/h 88 % 0 mm
09:05 -12.9 °C -13.9 °C 34852.1 hPa SW 12.9 km/h 12.9 km/h 88 % 0 mm
09:10 -12.9 °C -13.9 °C 34852.1 hPa SW 12.9 km/h 12.9 km/h 88 % 0 mm
09:15 -12.9 °C -13.9 °C 34852.1 hPa SW 10.3 km/h 12.9 km/h 88 % 0 mm
09:25 -12.8 °C -13.8 °C 34852.1 hPa SW 12.9 km/h 15.6 km/h 88 % 0 mm
09:30 -12.8 °C -13.7 °C 34865.6 hPa SW 12.9 km/h 15.6 km/h 89 % 0 mm
09:35 -12.7 °C -13.8 °C 34865.6 hPa SSW 10.3 km/h 10.3 km/h 88 % 0 mm
09:40 -12.7 °C -13.8 °C 34865.6 hPa SW 10.3 km/h 12.9 km/h 88 % 0 mm
09:45 -12.7 °C -13.8 °C 34865.6 hPa WSW 10.3 km/h 10.3 km/h 88 % 0 mm
09:50 -12.7 °C -13.8 °C 34865.6 hPa SW 12.9 km/h 12.9 km/h 88 % 0 mm
09:55 -12.7 °C -13.8 °C 34865.6 hPa SW 10.3 km/h 12.9 km/h 88 % 0 mm
10:00 -12.7 °C -13.7 °C 34865.6 hPa WSW 10.3 km/h 15.6 km/h 88 % 0 mm
10:15 -12.6 °C -13.7 °C 34865.6 hPa West 7.7 km/h 10.3 km/h 88 % 0 mm
10:20 -12.6 °C -13.6 °C 34865.6 hPa WSW 7.7 km/h 10.3 km/h 88 % 0 mm
10:30 -12.5 °C -13.7 °C 34865.6 hPa WSW 7.7 km/h 7.7 km/h 87 % 0 mm
10:35 -12.5 °C -13.7 °C 34875.8 hPa West 7.7 km/h 12.9 km/h 87 % 0 mm
10:40 -12.4 °C -13.6 °C 34875.8 hPa WSW 7.7 km/h 12.9 km/h 87 % 0 mm
10:45 -12.4 °C -13.6 °C 34875.8 hPa NW 10.3 km/h 10.3 km/h 87 % 0 mm
10:50 -12.4 °C -13.5 °C 34875.8 hPa West 7.7 km/h 15.6 km/h 87 % 0 mm
10:55 -12.4 °C -13.5 °C 34875.8 hPa WNW 10.3 km/h 10.3 km/h 87 % 0 mm
11:00 -12.4 °C -13.5 °C 34875.8 hPa WNW 10.3 km/h 10.3 km/h 87 % 0 mm
11:05 -12.3 °C -13.4 °C 34875.8 hPa West 10.3 km/h 10.3 km/h 87 % 0 mm
11:10 -12.3 °C -13.4 °C 34875.8 hPa WNW 10.3 km/h 10.3 km/h 87 % 0 mm
11:15 -12.3 °C -13.4 °C 34875.8 hPa WNW 10.3 km/h 10.3 km/h 87 % 0 mm
11:20 -12.3 °C -13.5 °C 34875.8 hPa NW 10.3 km/h 10.3 km/h 86 % 0 mm
11:25 -12.3 °C -13.5 °C 34875.8 hPa WNW 10.3 km/h 10.3 km/h 86 % 0 mm
11:30 -12.2 °C -13.4 °C 34875.8 hPa WNW 7.7 km/h 7.7 km/h 86 % 0 mm
11:35 -12.2 °C -13.4 °C 34875.8 hPa West 7.7 km/h 12.9 km/h 86 % 0 mm
11:40 -12.1 °C -13.3 °C 34875.8 hPa West 7.7 km/h 7.7 km/h 86 % 0 mm
11:45 -12.1 °C -13.3 °C 34875.8 hPa West 7.7 km/h 7.7 km/h 86 % 0 mm
11:50 -12.1 °C -13.3 °C 34875.8 hPa West 5.1 km/h 5.1 km/h 86 % 0 mm
11:55 -12 °C -13.3 °C 34875.8 hPa West 5.1 km/h 5.1 km/h 85 % 0 mm
12:00 -12 °C -13.3 °C 34875.8 hPa WNW 5.1 km/h 7.7 km/h 85 % 0 mm
12:05 -11.9 °C -13.3 °C 34875.8 hPa West 7.7 km/h 10.3 km/h 85 % 0 mm
12:15 -11.9 °C -13.4 °C 34875.8 hPa WNW 7.7 km/h 7.7 km/h 84 % 0 mm
12:20 -11.9 °C -13.3 °C 34875.8 hPa WSW 7.7 km/h 12.9 km/h 84 % 0 mm
12:25 -11.8 °C -13.2 °C 34875.8 hPa WNW 7.7 km/h 12.9 km/h 85 % 0 mm
12:30 -11.8 °C -13.3 °C 34875.8 hPa NW 7.7 km/h 12.9 km/h 84 % 0 mm
12:35 -11.8 °C -13.2 °C 34875.8 hPa WNW 10.3 km/h 10.3 km/h 84 % 0 mm
12:40 -11.8 °C -13.3 °C 34875.8 hPa WNW 10.3 km/h 10.3 km/h 83 % 0 mm
12:45 -11.8 °C -13.3 °C 34875.8 hPa WNW 7.7 km/h 7.7 km/h 83 % 0 mm
12:50 -11.7 °C -13.2 °C 34875.8 hPa WNW 5.1 km/h 7.7 km/h 84 % 0 mm
12:55 -11.7 °C -13.1 °C 34875.8 hPa WNW 5.1 km/h 7.7 km/h 84 % 0 mm
13:00 -11.6 °C -13.2 °C 34875.8 hPa WSW 5.1 km/h 7.7 km/h 83 % 0 mm
13:15 -11.6 °C -13.1 °C 34889.3 hPa NW 7.7 km/h 7.7 km/h 84 % 0 mm
13:20 -11.6 °C -13.1 °C 34889.3 hPa West 7.7 km/h 7.7 km/h 83 % 0 mm
13:25 -11.6 °C -13.1 °C 34875.8 hPa WSW 7.7 km/h 7.7 km/h 83 % 0 mm
13:30 -11.6 °C -13.1 °C 34875.8 hPa WSW 7.7 km/h 12.9 km/h 83 % 0 mm
13:35 -11.5 °C -13.1 °C 34875.8 hPa SSW 7.7 km/h 7.7 km/h 83 % 0 mm
13:40 -11.4 °C -12.9 °C 34875.8 hPa WNW 5.1 km/h 7.7 km/h 83 % 0 mm
13:45 -11.4 °C -13.1 °C 34875.8 hPa West 7.7 km/h 7.7 km/h 82 % 0 mm
13:50 -11.4 °C -13.2 °C 34875.8 hPa West 7.7 km/h 7.7 km/h 81 % 0 mm
13:55 -11.4 °C -13.2 °C 34889.3 hPa West 5.1 km/h 5.1 km/h 81 % 0 mm
14:05 -11.3 °C -13.1 °C 34889.3 hPa WNW 5.1 km/h 10.3 km/h 81 % 0 mm
14:10 -11.3 °C -13.1 °C 34889.3 hPa WNW 7.7 km/h 12.9 km/h 81 % 0 mm
Veghelsweer
Gegevens verzameld door Weather Underground - 2.25 mb

Script ontwikkeld door  Jim McMurry - jmcmurry@mwt.net Aangepast voor de template door  Wim van der Kuil - Leuven-Template.eu

Apparatuur in gebruik:

Weerstation
Davis VP2

Weerprogramma
WeatherLink

Weercomputer
Sponsor

Webleverancier
My provider

Davis VP2

WeatherLink

Sponsor

My provider